Location: Zürich
(47.3769°N, 8.5417°E)
Time: 10:02:58
(UTC+02:00)

ISS - Pass Details

Date: 25 May 2021
Orbit: 417 x 422 km, 51.6° (Epoch: 13 June)

Event Time Altitude Azimuth Distance (km) Brightness Sun altitude
Rises 00:35:36 0° 292° (WNW) 2,368 0.5 -20.9°
Reaches altitude 10° 00:37:46 10° 285° (WNW) 1,502 -0.6 -20.9°
Enters shadow 00:39:31 25° 267° (W) 882 -2.1 -21.0°
